Time,TemperatureF,DewpointF,PressureIn,WindDirection,WindDirectionDegrees,WindSpeedMPH,WindSpeedGustMPH,Humidity,HourlyPrecipIn,Conditions,Clouds,dailyrainin,SoftwareType,DateUTC
2013-08-28 00:00:00,67.6,67.0,29.88,East,79,0.0,-999.0,99,-99.99,,,0.00,weatherlink.com 1.10,2013-08-28 04:00:00,
2013-08-28 00:14:00,67.6,67.0,29.88,East,79,0.0,-999.0,99,-99.99,,,0.00,weatherlink.com 1.10,2013-08-28 04:14:00,
2013-08-28 00:29:00,67.3,67.0,29.88,East,79,0.0,-999.0,100,-99.99,,,0.00,weatherlink.com 1.10,2013-08-28 04:29:00,
2013-08-28 00:44:00,67.1,67.0,29.88,East,79,0.0,-999.0,100,-99.99,,,0.00,weatherlink.com 1.10,2013-08-28 04:44:00,
2013-08-28 00:59:00,66.8,67.0,29.88,East,79,0.0,-999.0,100,-99.99,,,0.00,weatherlink.com 1.10,2013-08-28 04:59:00,
2013-08-28 01:14:00,66.6,67.0,29.86,East,79,0.0,-999.0,100,-99.99,,,0.00,weatherlink.com 1.10,2013-08-28 05:14:00,
2013-08-28 01:29:00,66.3,66.0,29.86,East,79,0.0,-999.0,100,-99.99,,,0.00,weatherlink.com 1.10,2013-08-28 05:29:00,
2013-08-28 01:44:00,66.1,66.0,29.86,East,79,0.0,-999.0,100,-99.99,,,0.00,weatherlink.com 1.10,2013-08-28 05:44:00,
2013-08-28 01:59:00,66.0,66.0,29.86,East,79,0.0,-999.0,100,-99.99,,,0.00,weatherlink.com 1.10,2013-08-28 05:59:00,
2013-08-28 02:14:00,65.8,66.0,29.85,East,79,0.0,-999.0,100,-99.99,,,0.00,weatherlink.com 1.10,2013-08-28 06:14:00,
2013-08-28 02:29:00,65.6,66.0,29.85,East,79,0.0,-999.0,100,-99.99,,,0.00,weatherlink.com 1.10,2013-08-28 06:29:00,
2013-08-28 02:44:00,65.5,66.0,29.85,East,79,0.0,-999.0,100,-99.99,,,0.00,weatherlink.com 1.10,2013-08-28 06:44:00,
2013-08-28 02:59:00,65.2,65.0,29.85,East,79,0.0,-999.0,100,-99.99,,,0.00,weatherlink.com 1.10,2013-08-28 06:59:00,
2013-08-28 03:14:00,65.0,65.0,29.85,East,79,0.0,-999.0,100,-99.99,,,0.00,weatherlink.com 1.10,2013-08-28 07:14:00,
2013-08-28 03:29:00,64.8,65.0,29.84,East,79,0.0,-999.0,100,-99.99,,,0.00,weatherlink.com 1.10,2013-08-28 07:29:00,
2013-08-28 03:44:00,64.5,65.0,29.84,East,79,0.0,-999.0,100,-99.99,,,0.00,weatherlink.com 1.10,2013-08-28 07:44:00,
2013-08-28 03:59:00,64.5,65.0,29.84,East,79,0.0,-999.0,100,-99.99,,,0.00,weatherlink.com 1.10,2013-08-28 07:59:00,
2013-08-28 04:14:00,64.3,64.0,29.85,East,79,0.0,-999.0,100,-99.99,,,0.00,weatherlink.com 1.10,2013-08-28 08:14:00,
2013-08-28 04:29:00,64.2,64.0,29.85,East,79,0.0,-999.0,100,-99.99,,,0.00,weatherlink.com 1.10,2013-08-28 08:29:00,
2013-08-28 04:44:00,63.9,64.0,29.85,East,79,0.0,-999.0,100,-99.99,,,0.00,weatherlink.com 1.10,2013-08-28 08:44:00,
2013-08-28 04:59:00,63.7,64.0,29.85,East,79,0.0,-999.0,100,-99.99,,,0.00,weatherlink.com 1.10,2013-08-28 08:59:00,
2013-08-28 05:14:00,63.5,64.0,29.85,East,79,0.0,-999.0,100,-99.99,,,0.00,weatherlink.com 1.10,2013-08-28 09:14:00,
2013-08-28 05:29:00,63.4,63.0,29.85,East,79,0.0,-999.0,100,-99.99,,,0.00,weatherlink.com 1.10,2013-08-28 09:29:00,
2013-08-28 05:44:00,63.2,63.0,29.86,East,79,0.0,-999.0,100,-99.99,,,0.00,weatherlink.com 1.10,2013-08-28 09:44:00,
2013-08-28 05:59:00,63.1,63.0,29.86,East,79,0.0,-999.0,100,-99.99,,,0.00,weatherlink.com 1.10,2013-08-28 09:59:00,
2013-08-28 06:14:00,62.7,63.0,29.88,East,79,0.0,-999.0,100,-99.99,,,0.00,weatherlink.com 1.10,2013-08-28 10:14:00,
2013-08-28 06:29:00,62.7,63.0,29.88,East,79,0.0,-999.0,100,-99.99,,,0.00,weatherlink.com 1.10,2013-08-28 10:29:00,
2013-08-28 06:44:00,62.7,63.0,29.88,East,79,0.0,-999.0,100,-99.99,,,0.00,weatherlink.com 1.10,2013-08-28 10:44:00,
2013-08-28 06:59:00,62.9,63.0,29.88,East,79,0.0,-999.0,100,-99.99,,,0.00,weatherlink.com 1.10,2013-08-28 10:59:00,
2013-08-28 07:14:00,63.2,63.0,29.88,East,79,0.0,-999.0,100,-99.99,,,0.00,weatherlink.com 1.10,2013-08-28 11:14:00,
2013-08-28 07:29:00,64.0,64.0,29.88,East,79,0.0,-999.0,100,-99.99,,,0.00,weatherlink.com 1.10,2013-08-28 11:29:00,
2013-08-28 07:44:00,65.2,65.0,29.88,East,79,0.0,-999.0,100,-99.99,,,0.00,weatherlink.com 1.10,2013-08-28 11:44:00,
2013-08-28 07:59:00,66.3,66.0,29.88,East,79,0.0,-999.0,100,-99.99,,,0.00,weatherlink.com 1.10,2013-08-28 11:59:00,
2013-08-28 08:14:00,67.3,67.0,29.88,East,80,0.0,-999.0,100,-99.99,,,0.00,weatherlink.com 1.10,2013-08-28 12:14:00,
2013-08-28 08:29:00,68.4,68.0,29.88,East,80,0.0,-999.0,100,-99.99,,,0.00,weatherlink.com 1.10,2013-08-28 12:29:00,
2013-08-28 08:45:00,69.9,70.0,29.88,East,83,0.0,-999.0,100,-99.99,,,0.00,weatherlink.com 1.10,2013-08-28 12:45:00,
2013-08-28 08:59:00,71.6,72.0,29.89,East,83,0.0,-999.0,100,-99.99,,,0.00,weatherlink.com 1.10,2013-08-28 12:59:00,
2013-08-28 09:15:00,73.0,73.0,29.89,East,85,0.0,-999.0,100,-99.99,,,0.00,weatherlink.com 1.10,2013-08-28 13:15:00,
2013-08-28 09:29:00,74.2,74.0,29.89,East,93,0.0,-999.0,100,-99.99,,,0.00,weatherlink.com 1.10,2013-08-28 13:29:00,
2013-08-28 09:44:00,76.0,70.0,29.89,ESE,103,0.0,-999.0,82,-99.99,,,0.00,weatherlink.com 1.10,2013-08-28 13:44:00,
2013-08-28 09:59:00,77.4,68.0,29.89,ESE,112,1.0,-999.0,73,-99.99,,,0.00,weatherlink.com 1.10,2013-08-28 13:59:00,
2013-08-28 10:14:00,79.2,67.0,29.89,ESE,113,0.0,-999.0,67,-99.99,,,0.00,weatherlink.com 1.10,2013-08-28 14:14:00,
2013-08-28 10:29:00,80.5,65.0,29.88,SE,131,0.0,-999.0,60,-99.99,,,0.00,weatherlink.com 1.10,2013-08-28 14:29:00,
2013-08-28 10:44:00,81.4,65.0,29.88,SE,128,1.0,-999.0,57,-99.99,,,0.00,weatherlink.com 1.10,2013-08-28 14:44:00,
2013-08-28 10:59:00,81.8,65.0,29.88,East,86,0.0,-999.0,57,-99.99,,,0.00,weatherlink.com 1.10,2013-08-28 14:59:00,
2013-08-28 11:14:00,83.2,66.0,29.88,SSE,161,0.0,-999.0,56,-99.99,,,0.00,weatherlink.com 1.10,2013-08-28 15:14:00,
2013-08-28 11:29:00,84.7,66.0,29.88,SSE,157,0.0,-999.0,54,-99.99,,,0.00,weatherlink.com 1.10,2013-08-28 15:29:00,
2013-08-28 11:44:00,85.5,66.0,29.88,SE,130,0.0,-999.0,52,-99.99,,,0.00,weatherlink.com 1.10,2013-08-28 15:44:00,
2013-08-28 11:59:00,86.5,66.0,29.87,SE,131,0.0,-999.0,51,-99.99,,,0.00,weatherlink.com 1.10,2013-08-28 15:59:00,
2013-08-28 12:14:00,85.7,65.0,29.87,ESE,104,0.0,-999.0,50,-99.99,,,0.00,weatherlink.com 1.10,2013-08-28 16:14:00,
2013-08-28 12:29:00,86.5,65.0,29.86,East,86,0.0,-999.0,49,-99.99,,,0.00,weatherlink.com 1.10,2013-08-28 16:29:00,
2013-08-28 12:59:00,88.2,64.0,29.86,East,92,0.0,-999.0,44,-99.99,,,0.00,weatherlink.com 1.10,2013-08-28 16:59:00,
2013-08-28 13:15:00,89.7,64.0,29.86,ESE,112,0.0,-999.0,42,-99.99,,,0.00,weatherlink.com 1.10,2013-08-28 17:15:00,
2013-08-28 13:30:00,90.5,63.0,29.86,SE,137,0.0,-999.0,40,-99.99,,,0.00,weatherlink.com 1.10,2013-08-28 17:30:00,
2013-08-28 13:45:00,88.8,64.0,29.85,NE,45,0.0,-999.0,44,-99.99,,,0.00,weatherlink.com 1.10,2013-08-28 17:45:00,
2013-08-28 13:59:00,87.8,64.0,29.85,ENE,58,0.0,-999.0,45,-99.99,,,0.00,weatherlink.com 1.10,2013-08-28 17:59:00,
2013-08-28 14:14:00,88.0,63.0,29.84,ESE,116,0.0,-999.0,44,-99.99,,,0.00,weatherlink.com 1.10,2013-08-28 18:14:00,
2013-08-28 14:30:00,88.2,62.0,29.84,NE,42,0.0,-999.0,42,-99.99,,,0.00,weatherlink.com 1.10,2013-08-28 18:30:00,
2013-08-28 14:45:00,89.5,63.0,29.84,East,100,0.0,-999.0,41,-99.99,,,0.00,weatherlink.com 1.10,2013-08-28 18:45:00,
2013-08-28 15:00:00,89.0,63.0,29.83,South,181,0.0,-999.0,42,-99.99,,,0.00,weatherlink.com 1.10,2013-08-28 19:00:00,
2013-08-28 15:14:00,88.8,64.0,29.83,ESE,119,0.0,-999.0,43,-99.99,,,0.00,weatherlink.com 1.10,2013-08-28 19:14:00,
2013-08-28 15:29:00,89.3,63.0,29.83,SSE,148,0.0,-999.0,42,-99.99,,,0.00,weatherlink.com 1.10,2013-08-28 19:29:00,
2013-08-28 15:45:00,89.5,61.0,29.82,SSE,157,0.0,-999.0,39,-99.99,,,0.00,weatherlink.com 1.10,2013-08-28 19:45:00,
2013-08-28 15:59:00,89.3,64.0,29.83,South,181,0.0,-999.0,43,-99.99,,,0.00,weatherlink.com 1.10,2013-08-28 19:59:00,
2013-08-28 16:15:00,89.0,62.0,29.83,SSW,203,0.0,-999.0,41,-99.99,,,0.00,weatherlink.com 1.10,2013-08-28 20:15:00,
2013-08-28 16:29:00,88.6,63.0,29.83,NE,49,0.0,-999.0,43,-99.99,,,0.00,weatherlink.com 1.10,2013-08-28 20:29:00,
2013-08-28 16:44:00,87.2,64.0,29.83,ENE,73,0.0,-999.0,46,-99.99,,,0.00,weatherlink.com 1.10,2013-08-28 20:44:00,
2013-08-28 16:59:00,86.1,65.0,29.84,ENE,73,0.0,-999.0,49,-99.99,,,0.00,weatherlink.com 1.10,2013-08-28 20:59:00,
2013-08-28 17:14:00,84.9,64.0,29.84,ESE,117,0.0,-999.0,50,-99.99,,,0.00,weatherlink.com 1.10,2013-08-28 21:14:00,
2013-08-28 17:29:00,83.8,65.0,29.84,South,191,0.0,-999.0,53,-99.99,,,0.00,weatherlink.com 1.10,2013-08-28 21:29:00,
2013-08-28 17:44:00,82.8,65.0,29.85,SSE,161,0.0,-999.0,56,-99.99,,,0.00,weatherlink.com 1.10,2013-08-28 21:44:00,
2013-08-28 17:59:00,81.6,65.0,29.85,South,185,0.0,-999.0,58,-99.99,,,0.00,weatherlink.com 1.10,2013-08-28 21:59:00,
2013-08-28 18:14:00,80.9,65.0,29.86,SE,138,0.0,-999.0,59,-99.99,,,0.00,weatherlink.com 1.10,2013-08-28 22:14:00,
2013-08-28 18:29:00,80.3,65.0,29.87,South,169,6.0,-999.0,60,-99.99,,,0.00,weatherlink.com 1.10,2013-08-28 22:29:00,
2013-08-28 18:44:00,79.8,65.0,29.88,South,171,0.0,-999.0,60,-99.99,,,0.00,weatherlink.com 1.10,2013-08-28 22:44:00,
2013-08-28 18:59:00,79.0,65.0,29.88,South,171,0.0,-999.0,62,-99.99,,,0.00,weatherlink.com 1.10,2013-08-28 22:59:00,
2013-08-28 19:14:00,78.1,64.0,29.88,South,172,0.0,-999.0,62,-99.99,,,0.00,weatherlink.com 1.10,2013-08-28 23:14:00,
2013-08-28 19:29:00,77.6,64.0,29.88,South,175,0.0,-999.0,63,-99.99,,,0.00,weatherlink.com 1.10,2013-08-28 23:29:00,
2013-08-28 19:44:00,77.0,64.0,29.89,South,175,0.0,-999.0,64,-99.99,,,0.00,weatherlink.com 1.10,2013-08-28 23:44:00,
2013-08-28 20:00:00,76.3,63.0,29.90,South,175,0.0,-999.0,64,-99.99,,,0.00,weatherlink.com 1.10,2013-08-29 00:00:00,
2013-08-28 20:15:00,76.0,63.0,29.90,South,175,0.0,-999.0,65,-99.99,,,0.00,weatherlink.com 1.10,2013-08-29 00:15:00,
2013-08-28 20:29:00,75.3,63.0,29.91,South,169,0.0,-999.0,66,-99.99,,,0.00,weatherlink.com 1.10,2013-08-29 00:29:00,
2013-08-28 20:44:00,74.7,63.0,29.91,South,169,0.0,-999.0,67,-99.99,,,0.00,weatherlink.com 1.10,2013-08-29 00:44:00,
2013-08-28 20:59:00,74.2,63.0,29.91,South,169,0.0,-999.0,68,-99.99,,,0.00,weatherlink.com 1.10,2013-08-29 00:59:00,
2013-08-28 21:14:00,73.7,63.0,29.91,South,169,0.0,-999.0,70,-99.99,,,0.00,weatherlink.com 1.10,2013-08-29 01:14:00,
2013-08-28 21:29:00,73.0,64.0,29.91,East,99,0.0,-999.0,73,-99.99,,,0.00,weatherlink.com 1.10,2013-08-29 01:29:00,
2013-08-28 21:44:00,72.7,64.0,29.93,East,99,0.0,-999.0,74,-99.99,,,0.00,weatherlink.com 1.10,2013-08-29 01:44:00,
2013-08-28 21:59:00,72.3,65.0,29.93,East,99,0.0,-999.0,77,-99.99,,,0.00,weatherlink.com 1.10,2013-08-29 01:59:00,
2013-08-28 22:14:00,72.1,65.0,29.94,North,359,0.0,-999.0,79,-99.99,,,0.00,weatherlink.com 1.10,2013-08-29 02:14:00,
2013-08-28 22:29:00,71.3,66.0,29.95,ESE,120,0.0,-999.0,83,-99.99,,,0.00,weatherlink.com 1.10,2013-08-29 02:29:00,
2013-08-28 22:44:00,70.3,66.0,29.94,ENE,69,0.0,-999.0,85,-99.99,,,0.00,weatherlink.com 1.10,2013-08-29 02:44:00,
2013-08-28 22:59:00,69.6,66.0,29.95,East,86,0.0,-999.0,87,-99.99,,,0.00,weatherlink.com 1.10,2013-08-29 02:59:00,
2013-08-28 23:14:00,69.4,66.0,29.95,East,86,0.0,-999.0,88,-99.99,,,0.00,weatherlink.com 1.10,2013-08-29 03:14:00,
2013-08-28 23:30:00,69.3,66.0,29.96,East,90,0.0,-999.0,88,-99.99,,,0.00,weatherlink.com 1.10,2013-08-29 03:30:00,
2013-08-28 23:44:00,69.1,66.0,29.96,East,92,1.0,-999.0,88,-99.99,,,0.00,weatherlink.com 1.10,2013-08-29 03:44:00,
2013-08-28 23:59:00,69.1,66.0,29.97,East,92,0.0,-999.0,88,-99.99,,,0.00,weatherlink.com 1.10,2013-08-29 03:59:00,